Regional Weather Roundup
Issued by NWS

Home | Current Version | Previous Version | Graphics & Text | Print | Product List | Glossary On
Versions: 1 2 3 4 5 6 7 8 9 10 11 12 13 14 15 16 17 18 19 20 21 22 23 24 25 26 27 28 29 30 31 32 33 34 35 36 37 38 39 40 41 42 43 44 45 46 47 48 49 50
185
ASUS43 KBIS 220802
RWRND

NORTH DAKOTA REGIONAL WEATHER ROUNDUP
NATIONAL WEATHER SERVICE BISMARCK ND
300 AM CDT SAT JUL 22 2017

NOTE: "FAIR" INDICATES FEW OR NO CLOUDS BELOW 12,000 FEET WITH NO
SIGNIFICANT WEATHER AND/OR OBSTRUCTIONS TO VISIBILITY.


NDZ001>003-009>011-017-220900-
NORTHWEST NORTH DAKOTA

CITY           SKY/WX    TMP DP  RH WIND       PRES   REMARKS
WILLISTON      CLEAR     62  47  57 NE3       29.93S
MINOT          CLEAR     66  51  58 W12       29.86R
MINOT AFB      CLEAR     57  54  88 W8        29.85R
$$

NDZ018>021-031>035-040>046-220900-
SOUTHWEST NORTH DAKOTA

CITY           SKY/WX    TMP DP  RH WIND       PRES   REMARKS
BISMARCK       CLEAR     63  62  97 W3        29.87R
DICKINSON      CLEAR     55  47  74 S6        29.95R
GARRISON         N/A     56  55  97 W3        29.88R
HETTINGER ARPT CLEAR     58  47  66 NW3       29.97R
$$

NDZ004>008-012>016-024-026-027-054-220900-
NORTHEAST NORTH DAKOTA

CITY           SKY/WX    TMP DP  RH WIND       PRES   REMARKS
GRAND FORKS    CLOUDY    70  70 100 SW5       29.77F FOG
GRND FRKS AFB  CLOUDY    70  70 100 W9        29.78R
DEVILS LAKE    CLEAR     67  65  93 SW5       29.83S
$$

NDZ022-023-025-028>030-036>039-047>053-220900-
SOUTHEAST NORTH DAKOTA

CITY           SKY/WX    TMP DP  RH WIND       PRES   REMARKS
FARGO          CLOUDY    73  67  81 SW8       29.76R
JAMESTOWN      CLOUDY    66  61  84 E3        29.83F
$$





USA.gov is the U.S. government's official web portal to all federal, state and local government web resources and services.